Regional Weather Roundup
Issued by NWS State College, PA

Home | Current Version | Previous Version | Graphics & Text | Print | Product List | Glossary Off
Versions: 1 2 3 4 5 6 7 8 9 10 11 12 13 14 15 16 17 18 19 20 21 22 23 24 25 26 27 28 29 30 31 32 33 34 35 36 37 38 39 40 41 42 43 44 45 46 47 48 49 50

000
ASUS41 KCTP 261003
RWRCTP

REGIONAL WEATHER ROUNDUP
NATIONAL WEATHER SERVICE STATE COLLEGE PA
500 AM EST MON JAN 26 2015

Note: "fair" indicates few or no clouds below 12,000 feet with no
significant weather and/or obstructions to visibility.

* = STATION THAT DOES NOT REPORT PRECIPITATION /E.G. RAIN...SNOW...ETC/
    THUNDER OR FOG.

PAZ002>004-007>009-013>016-020>023-029>032-261100-
WESTERN PENNSYLVANIA

CITY           SKY/WX    TMP DP  RH WIND       PRES   REMARKS
ERIE           CLOUDY    17   8  67 NE9       29.84F WCI   6
MEADVILLE      LGT SNOW  18  13  80 NE9       29.74F WCI   7
FRANKLIN*      CLOUDY    19  16  86 NE10      29.74F WCI   8
NEW CASTLE     LGT SNOW  21  20  96 N7        29.75F FOG     WCI  12
BEAVER COUNTY  NOT AVBL
BUTLER*        CLOUDY    27  21  80 NE13G18   29.71F
PITTSBURGH INT LGT SNOW  29  28  96 N6        29.68F FOG
PITTSBURGH     LGT SNOW  31  28  89 NE5       29.66F FOG
INDIANA*       CLOUDY    27  23  86 E13G18    29.75S
LATROBE        MIX PCPN  34  32  93 NE7       29.69F
WASHINGTON CO* CLOUDY    30  28  93 CALM      29.68S
$$

PAZ004>006-010>012-017>019-024>028-033>037-041-042-045-046-049>053-261100-
CENTRAL PENNSYLVANIA

CITY           SKY/WX    TMP DP  RH WIND       PRES   REMARKS
BRADFORD       CLOUDY    12   6  77 E9        29.75F WCI   0
DUBOIS         CLOUDY    18  15  88 E14G20    29.72F FOG     WCI   4
CLEARFIELD     LGT SNOW  17  13  84 NE10      29.79F FOG     WCI   5
JOHNSTOWN      CLOUDY    22  19  89 E8        29.66F FOG     WCI  12
ALTOONA        LGT SNOW  23  20  88 NE8       29.76F FOG     WCI  14
STATE COLLEGE  LGT SNOW  17  15  90 NE7       29.84S WCI   8
WILLIAMSPORT   LGT SNOW  18  13  80 E3        29.93F
SELINSGROVE    LGT SNOW  20  15  81 NE12      29.92F WCI   8
FT INDIANTOWN  LGT SNOW  23  19  86 E14G22    29.90S FOG     WCI  11
CAPITAL CITY   CLOUDY    25  21  85 E17       29.88F WCI  12
HARRISBURG     LGT SNOW  25  21  85 E10       29.88F WCI  15
YORK           CLOUDY    28  25  88 NE13      29.84F
$$

PAZ038>040-043-044-047-048-054-055-060>062-067>071-261100-
EASTERN PENNSYLVANIA

CITY           SKY/WX    TMP DP  RH WIND       PRES   REMARKS
SCRANTON       LGT SNOW  16  11  80 NE8       29.91F VSB 1   WCI   5
MOUNT POCONO   LGT SNOW  14   9  80 E10       29.84F WCI   1
ALLENTOWN      LGT SNOW  20  15  81 NE16      29.95F WCI   6
QUAKERTOWN*    NOT AVBL
READING        LGT SNOW  23  20  88 NE7       29.91F FOG     WCI  15
LANCASTER      LGT SNOW  25  21  85 E13       29.88F FOG     WCI  14
COATESVILLE    CLOUDY    27  25  93 E9G21     29.88F
POTTSTOWN      FLURRIES  24  21  88 NE12      29.93F WCI  13
BLUE BELL      CLOUDY    28  23  80 NE9       29.93S
DOYLESTOWN     LGT SNOW  22  20  92 NE9       29.93F FOG     WCI  12
WILLOW GROVE   NOT AVBL
NORTH PHILA    CLOUDY    29  21  72 NE13      29.96S
PHILADELPHIA   CLOUDY    31  22  69 NE12      29.94S
$$


USA.gov is the U.S. government's official web portal to all federal, state and local government web resources and services.